Weather reports worldwide

Advertisment
Decimomannu, Italy (16546): temperature & dewpoint: 16.09.2018 23:00:00 - 22.09.2018 23:00:00 (CEST)Decimomannu, Italy (16546): wind speed: 16.09.2018 23:00:00 - 22.09.2018 23:00:00 (CEST)Decimomannu, Italy (16546): wind direction: 16.09.2018 23:00:00 - 22.09.2018 23:00:00 (CEST)Decimomannu, Italy (16546): reduced air pressure: 16.09.2018 23:00:00 - 22.09.2018 23:00:00 (CEST)Decimomannu, Italy (16546): visibility: 16.09.2018 23:00:00 - 22.09.2018 23:00:00 (CEST)
Date & Time tt [°C] td [°C] ff [km/h] ff [kn] dd ppp [hPa] vv [km]
22.09.2018 23:00:00 21,0 19,7 15 8 NW 1020,0 15
22.09.2018 22:00:00 - - - - - - -
22.09.2018 21:00:00 - - - - - - -
22.09.2018 20:00:00 23,8 15,8 16 9 WNW 1018,8 15
22.09.2018 19:00:00 - - - - - - -
22.09.2018 18:00:00 - - - - - - -
22.09.2018 17:00:00 28,0 20,0 35 19 NW 1018,0 25
22.09.2018 16:00:00 - - - - - - -
22.09.2018 15:00:00 - - - - - - -
22.09.2018 14:00:00 28,6 21,9 29 16 NW 1018,3 25
22.09.2018 13:00:00 - - - - - - -
22.09.2018 12:00:00 - - - - - - -
22.09.2018 11:00:00 25,2 21,9 22 12 NNW 1018,8 12
22.09.2018 10:00:00 - - - - - - -
22.09.2018 09:00:00 - - - - - - -
22.09.2018 08:00:00 19,8 17,9 11 6 N 1017,4 25
22.09.2018 07:00:00 - - - - - - -
22.09.2018 06:00:00 - - - - - - -
22.09.2018 05:00:00 21,0 19,3 11 6 N 1016,7 12
22.09.2018 04:00:00 - - - - - - -
22.09.2018 03:00:00 - - - - - - -
22.09.2018 02:00:00 20,4 18,7 9 5 NNE 1016,8 15
22.09.2018 01:00:00 - - - - - - -
22.09.2018 00:00:00 - - - - - - -
21.09.2018 23:00:00 23,0 21,8 13 7 NW 1015,8 15
21.09.2018 22:00:00 - - - - - - -
21.09.2018 21:00:00 - - - - - - -
21.09.2018 20:00:00 25,0 23,6 9 5 NNW 1013,7 15
21.09.2018 19:00:00 - - - - - - -
21.09.2018 18:00:00 - - - - - - -
21.09.2018 17:00:00 27,0 21,5 9 5 NW 1012,8 20
21.09.2018 16:00:00 - - - - - - -
21.09.2018 15:00:00 - - - - - - -
21.09.2018 14:00:00 26,0 21,7 15 8 N 1013,7 15
21.09.2018 13:00:00 - - - - - - -
21.09.2018 12:00:00 - - - - - - -
21.09.2018 11:00:00 23,4 21,1 16 9 NW 1013,5 20
21.09.2018 10:00:00 - - - - - - -
21.09.2018 09:00:00 - - - - - - -
21.09.2018 08:00:00 21,0 19,7 15 8 NNW 1011,8 12
21.09.2018 07:00:00 - - - - - - -
21.09.2018 06:00:00 - - - - - - -
21.09.2018 05:00:00 21,0 19,5 18 10 NNW 1012,2 12
21.09.2018 04:00:00 - - - - - - -
21.09.2018 03:00:00 - - - - - - -
21.09.2018 02:00:00 21,0 19,3 5 3 NNW 1013,4 12
21.09.2018 01:00:00 - - - - - - -
21.09.2018 00:00:00 - - - - - - -
20.09.2018 23:00:00 22,0 20,3 15 8 NW 1013,8 8
20.09.2018 22:00:00 - - - - - - -
20.09.2018 21:00:00 - - - - - - -
20.09.2018 20:00:00 22,8 21,8 15 8 WNW 1013,8 8
20.09.2018 19:00:00 - - - - - - -
20.09.2018 18:00:00 - - - - - - -
20.09.2018 17:00:00 25,4 23,3 26 14 NW 1013,9 15
20.09.2018 16:00:00 24,0 23,0 15 8 N - 10
20.09.2018 15:00:00 28,0 23,0 22 12 WNW - 10
20.09.2018 14:00:00 28,0 22,7 21 11 NW 1015,5 20
20.09.2018 13:00:00 27,0 21,0 18 10 NNW - 10
20.09.2018 12:00:00 - - - - - - -
20.09.2018 11:00:00 24,2 21,9 15 8 NW 1016,7 15
20.09.2018 10:00:00 - - - - - - -
20.09.2018 09:00:00 - - - - - - -
20.09.2018 08:00:00 19,4 17,5 9 5 WNW 1016,4 12
20.09.2018 07:00:00 - - - - - - -
20.09.2018 06:00:00 - - - - - - -
20.09.2018 05:00:00 20,0 18,3 9 5 NW 1015,9 10
20.09.2018 04:00:00 - - - - - - -
20.09.2018 03:00:00 - - - - - - -
20.09.2018 02:00:00 20,8 18,9 4 2 N 1016,7 10
20.09.2018 01:00:00 21,0 19,0 4 2 N - 10
20.09.2018 00:00:00 - - - - - - -
19.09.2018 23:00:00 21,8 20,1 4 2 W 1017,5 12
19.09.2018 22:00:00 - - - - - - -
19.09.2018 21:00:00 22,0 20,0 2 1 N - 10
19.09.2018 20:00:00 22,4 20,5 2 1 ESE 1016,2 9
19.09.2018 19:00:00 23,0 21,0 4 2 W - 8
19.09.2018 18:00:00 23,0 21,0 8 4 NE - 7
19.09.2018 17:00:00 23,0 21,5 9 5 E 1016,4 7
19.09.2018 16:00:00 22,0 20,0 9 5 ESE - 7
19.09.2018 15:00:00 22,0 21,0 8 4 NE - 3,0
19.09.2018 14:00:00 27,0 25,0 15 8 S 1015,8 3,0
19.09.2018 13:00:00 30,0 24,0 5 3 SW - 10
19.09.2018 12:00:00 29,0 24,0 8 4 WNW - 10
19.09.2018 11:00:00 27,0 22,8 5 3 NNW 1016,7 12
19.09.2018 10:00:00 24,0 22,0 8 4 E - 10
19.09.2018 09:00:00 21,0 19,0 8 4 NW - 10
19.09.2018 08:00:00 19,8 18,1 4 2 N 1015,7 10
19.09.2018 07:00:00 20,0 18,0 5 3 NW - 10
19.09.2018 06:00:00 21,0 19,0 2 1 NNW - 10
19.09.2018 05:00:00 20,8 19,1 8 4 N 1015,7 10
19.09.2018 04:00:00 21,0 19,0 5 3 W - 10
19.09.2018 03:00:00 22,0 20,0 8 4 NNW - 10
19.09.2018 02:00:00 21,8 20,4 4 2 NE 1016,0 10
19.09.2018 01:00:00 22,0 21,0 9 5 E - 10
19.09.2018 00:00:00 22,0 21,0 8 4 S - 10
18.09.2018 23:00:00 22,6 20,9 8 4 S 1016,8 10
18.09.2018 22:00:00 23,0 22,0 8 4 SW - 10
18.09.2018 21:00:00 25,0 23,0 9 5 SE - 10
18.09.2018 20:00:00 24,6 24,1 9 5 ESE 1016,3 10
18.09.2018 19:00:00 - - - - - - -
18.09.2018 18:00:00 - - - - - - -
18.09.2018 17:00:00 25,0 22,9 11 6 E 1016,8 20
18.09.2018 16:00:00 - - - - - - -
18.09.2018 15:00:00 - - - - - - -
18.09.2018 14:00:00 26,0 24,6 5 3 SSE 1018,1 10
18.09.2018 13:00:00 - - - - - - -
18.09.2018 12:00:00 - - - - - - -
18.09.2018 11:00:00 23,0 20,7 11 6 WNW 1018,4 7
18.09.2018 10:00:00 - - - - - - -
18.09.2018 09:00:00 - - - - - - -
18.09.2018 08:00:00 21,8 20,1 4 2 SSE 1017,8 7
18.09.2018 07:00:00 - - - - - - -
18.09.2018 06:00:00 - - - - - - -
18.09.2018 05:00:00 22,4 21,4 8 4 ESE 1017,7 10
18.09.2018 04:00:00 - - - - - - -
18.09.2018 03:00:00 - - - - - - -
18.09.2018 02:00:00 23,8 22,3 11 6 ESE 1017,4 20
18.09.2018 01:00:00 - - - - - - -
18.09.2018 00:00:00 - - - - - - -
17.09.2018 23:00:00 24,0 23,0 5 3 SSE 1018,2 12
17.09.2018 22:00:00 - - - - - - -
17.09.2018 21:00:00 - - - - - - -
17.09.2018 20:00:00 25,0 24,3 11 6 ESE 1017,8 15
17.09.2018 19:00:00 - - - - - - -
17.09.2018 18:00:00 27,0 24,0 16 9 SE - 10
17.09.2018 17:00:00 28,0 25,0 24 13 SE 1018,2 20
17.09.2018 16:00:00 - - - - - - -
17.09.2018 15:00:00 - - - - - - -
17.09.2018 14:00:00 29,4 25,0 22 12 SSE 1020,0 20
17.09.2018 13:00:00 - - - - - - -
17.09.2018 12:00:00 - - - - - - -
17.09.2018 11:00:00 25,0 23,3 5 3 ESE 1020,2 15
17.09.2018 10:00:00 - - - - - - -
17.09.2018 09:00:00 21,0 19,0 9 5 WNW - 10
17.09.2018 08:00:00 20,0 18,3 4 2 ENE 1019,4 20
17.09.2018 07:00:00 - - - - - - -
17.09.2018 06:00:00 - - - - - - -
17.09.2018 05:00:00 20,8 19,3 4 2 SE 1019,8 12
17.09.2018 04:00:00 - - - - - - -
17.09.2018 03:00:00 - - - - - - -
17.09.2018 02:00:00 21,6 19,7 8 4 E 1020,8 10
17.09.2018 01:00:00 - - - - - - -
17.09.2018 00:00:00 - - - - - - -
16.09.2018 23:00:00 23,0 21,3 8 4 ESE 1020,5 12

tt = temperature
td = dewpoint
ff = wind speed
dd = wind direction
ppp = reduced air pressure
vv = visibility

Next stations